Location: Toronto
(43.6532°N, 79.3832°W)
Time: 07:56:50
(UTC-04:00)

Tiangong 2 - Visible Passes

Search period start: 24 May 2019 00:00
Search period end: 03 June 2019 00:00
Orbit: 379 x 387 km, 42.8° (Epoch: 24 May)

Date Brightness Start Highest point End Pass type
(mag) Time Alt. Az. Time Alt. Az. Time Alt. Az.
24 May 0.9 22:21:04 10° W 22:24:12 76° S 22:25:37 29° ESE visible
25 May 1.0 21:21:02 10° W 21:24:11 77° S 21:27:19 10° E visible
25 May 1.5 22:57:44 10° W 23:00:24 47° SW 23:00:24 47° SW visible
26 May 1.0 21:57:41 10° W 22:00:48 67° S 22:02:58 18° ESE visible
26 May 3.7 23:34:37 10° W 23:35:08 13° WSW 23:35:08 13° WSW visible
27 May 1.7 22:34:24 10° W 22:37:19 36° SSW 22:37:41 35° S visible
28 May 1.3 21:34:18 10° W 21:37:22 52° SSW 21:40:13 11° ESE visible
28 May 3.6 23:11:39 10° WSW 23:12:23 13° WSW 23:12:23 13° WSW visible
29 May 2.5 22:11:08 10° W 22:13:47 25° SSW 22:14:56 20° S visible
31 May 3.2 21:48:07 10° WSW 21:50:10 16° SSW 21:52:12 10° S visible
